Location: Berg
(47.2344°N, 9.5296°E)
Time: 16:18:39
(UTC+00:00)

H-2A R/B - Pass Details

Date: 24 January 2021
Orbit: 577 x 655 km, 98.5° (Epoch: 28 February)

Event Time Altitude Azimuth Distance (km) Brightness Sun altitude
Rises 17:56:15 0° 4° (N) 2,967 5.4 -17.5°
Reaches altitude 10° 17:58:46 10° 351° (N) 2,041 4.7 -18.0°
Maximum altitude 18:02:23 25° 297° (WNW) 1,279 4.3 -18.6°
Drops below altitude 10° 18:05:56 10° 242° (WSW) 1,991 5.7 -19.2°
Sets 18:08:22 0° 229° (SW) 2,878 6.4 -19.6°
